Preview of NWS' New Version of Forecast
This preview is not operational and should not be used for support decisions.

Regional Weather Roundup (RWR)

Issued by National Weather Service (NWS)

                            
000
ASUS43 KLSX 231407
RWRMO 

WEATHER SUMMARY FOR MISSOURI
NATIONAL WEATHER SERVICE SPRINGFIELD MO
800 AM CST SAT FEB 23 2019

NOTE: "FAIR" INDICATES FEW OR NO CLOUDS BELOW 12,000 FEET WITH NO
       SIGNIFICANT WEATHER AND/OR OBSTRUCTIONS TO VISIBILITY.
       CURRENT SKY AND/OR WEATHER CONDITIONS ARE NOT AVAILABLE FOR
       CHILLICOTHE AND FARMINGTON.

MOZ001>031-035>038-043-044-053-054-231500-
...NORTHERN AND WESTERN MISSOURI...
  
CITY           SKY/WX    TMP DP  RH WIND       PRES   REMARKS
KANSAS CTY INT FOG       35  35 100 E10       29.80F VSB 1   WCI  27  
KANSAS C DTWN  CLOUDY    37  34  89 E6        29.80F FOG              
LEE'S SUMMIT   CLOUDY    34  34 100 E9        29.81F FOG     WCI  27  
ST JOSEPH      FOG       33  32  96 CALM      29.85S VSB 1/2          
CHILLICOTHE      N/A     36  35  96 E6        29.86F                  
KIRKSVILLE     CLOUDY    36  32  85 E8        29.88F HAZE    WCI  30  
     
$$
MOZ066>068-077>081-088>096-101>105-231500-
...SOUTHWEST MISSOURI...
  
CITY           SKY/WX    TMP DP  RH WIND       PRES   REMARKS
SPRINGFIELD    FOG       46  44  93 S13       29.79F VSB 1            
JOPLIN         TSTM      48  47  96 E8        29.73F FOG              
BRANSON        FOG       41  41 100 E12       29.81F VSB 1/4          
               
$$
MOZ032>034-039>042-045>050-055>058-069>072-231500-
...CENTRAL MISSOURI...  
  
CITY           SKY/WX    TMP DP  RH WIND       PRES   REMARKS
COLUMBIA       FOG       40  39  97 E7        29.85F VSB<1/4          
JEFFERSON CITY CLOUDY    43  41  93 E8        29.86F FOG              
ROLLA          FOG       41  41 100 E7        29.85F VSB 1/4          
SEDALIA        LGT RAIN  37  32  82 NE6       29.86S VSB<1/4          
WARRENSBURG    DRIZZLE   34  34 100 NE5       29.85S WCI  30          
OSAGE BEACH    CLOUDY    45  44  97 SE3       29.85S FOG              
               
$$
MOZ051-052-059>065-231500-
...EAST CENTRAL MISSOURI...
  
CITY           SKY/WX    TMP DP  RH WIND       PRES   REMARKS
ST LOUIS INTL  LGT RAIN  43  42  97 SE12      29.92R FOG              
SPIRIT OF STL  CLOUDY    44  43  96 VRB6      29.90S FOG              
ST CHARLES     LGT RAIN  42  42 100 E7        29.92S FOG              
                   
$$
MOZ072>076-082>087-097>100-106>115-231500-
...SOUTH CENTRAL AND SOUTHEAST MISSOURI...
  
CITY           SKY/WX    TMP DP  RH WIND       PRES   REMARKS
CAPE GIRARDEAU CLOUDY    47  45  93 N3        29.93R                  
FARMINGTON     FOG       44  44 100 S7        29.91S VSB 1/4          
POPLAR BLUFF   CLOUDY    46  46 100 N3        29.92S FOG              
WEST PLAINS    FOG       44  43  96 E6        29.87F VSB<1/4          
                                       
$$